Le nostre stazioni meteo in Italia

Pubblicità
Il mio iltempo24.it
Chateau Chinon, Francia (7270): Temperatura & dewpoint: 16.11.2019 08:00:00 - 22.11.2019 08:00:00 (CET)Chateau Chinon, Francia (7270): velocità del vento & gusts: 16.11.2019 08:00:00 - 22.11.2019 08:00:00 (CET)Chateau Chinon, Francia (7270): direzione del vento: 16.11.2019 08:00:00 - 22.11.2019 08:00:00 (CET)Chateau Chinon, Francia (7270): precipitazioni: 16.11.2019 08:00:00 - 22.11.2019 08:00:00 (CET)
Data & Tempo tt [°C] td [°C] ff [km/h] ff [kn] fx [km/h] fx [kn] dd rr [mm]
22.11.2019 08:00:00 - - - - - - - -
22.11.2019 07:00:00 3,7 1,9 9 5 22 12 SE -
22.11.2019 06:00:00 4,3 2,3 9 5 22 12 SSE 0,0
22.11.2019 05:00:00 5,4 2,7 8 4 28 15 SSO 0,0
22.11.2019 04:00:00 6,1 3,1 8 4 29 16 SSO 0,0
22.11.2019 03:00:00 6,4 2,8 13 7 31 17 SSO 0,0
22.11.2019 02:00:00 6,1 2,9 15 8 34 18 SO 0,0
22.11.2019 01:00:00 5,9 3,2 13 7 34 18 SSO -
22.11.2019 00:00:00 6,2 3,7 16 9 34 18 SSO 0,0
21.11.2019 23:00:00 5,7 4,0 9 5 29 16 SSE 0,0
21.11.2019 22:00:00 4,8 4,5 8 4 21 11 ESE 0,2
21.11.2019 21:00:00 5,3 4,7 4 2 28 15 ONO 0,0
21.11.2019 20:00:00 5,1 4,5 4 2 11 6 E 0,0
21.11.2019 19:00:00 5,3 4,3 8 4 29 16 SSO -
21.11.2019 18:00:00 6,8 4,1 8 4 28 15 SSE 0,0
21.11.2019 17:00:00 7,1 4,1 8 4 24 13 SE 0,0
21.11.2019 16:00:00 8,0 3,8 9 5 26 14 SSE 0,0
21.11.2019 15:00:00 9,3 3,5 9 5 29 16 SSE 0,0
21.11.2019 14:00:00 10,6 4,1 8 4 34 18 SSE 0,0
21.11.2019 13:00:00 9,6 3,3 11 6 37 20 SSE -
21.11.2019 12:00:00 10,1 3,8 9 5 31 17 SSE 0,0
21.11.2019 11:00:00 9,0 3,2 11 6 35 19 SSE 0,0
21.11.2019 10:00:00 7,7 2,8 11 6 39 21 SSE 0,0
21.11.2019 09:00:00 5,0 2,5 13 7 34 18 SE 0,0
21.11.2019 08:00:00 3,9 1,8 11 6 28 15 SE 0,0
21.11.2019 07:00:00 4,3 1,5 9 5 26 14 SE -
21.11.2019 06:00:00 5,1 1,6 11 6 29 16 SSE 0,0
21.11.2019 05:00:00 4,7 1,5 9 5 26 14 SE 0,0
21.11.2019 04:00:00 4,5 2,0 9 5 26 14 SE 0,0
21.11.2019 03:00:00 5,0 2,0 11 6 28 15 SSE 0,0
21.11.2019 02:00:00 5,2 3,0 8 4 34 18 SSE 0,0
21.11.2019 01:00:00 6,0 3,5 9 5 35 19 SSE -
21.11.2019 00:00:00 5,1 3,3 13 7 31 17 SE 0,0
20.11.2019 23:00:00 4,9 3,2 9 5 26 14 SE 0,0
20.11.2019 22:00:00 3,3 2,3 9 5 34 18 SE 0,0
20.11.2019 21:00:00 2,8 1,5 9 5 29 16 ESE 0,0
20.11.2019 20:00:00 2,2 1,2 9 5 29 16 ESE 0,0
20.11.2019 19:00:00 2,5 1,3 11 6 26 14 ESE -
20.11.2019 18:00:00 3,0 1,7 8 4 29 16 E 0,0
20.11.2019 17:00:00 3,7 1,9 9 5 26 14 ESE 0,0
20.11.2019 16:00:00 5,8 2,8 4 2 13 7 ESE 0,0
20.11.2019 15:00:00 8,9 3,5 4 2 13 7 SE 0,0
20.11.2019 14:00:00 8,3 2,9 4 2 11 6 ESE 0,0
20.11.2019 13:00:00 8,3 2,9 4 2 15 8 SE -
20.11.2019 12:00:00 6,4 2,7 4 2 15 8 ESE 0,0
20.11.2019 11:00:00 3,4 1,9 4 2 15 8 ESE 0,0
20.11.2019 10:00:00 0,7 0,3 5 3 18 10 ESE 0,0
20.11.2019 09:00:00 -0,7 -0,8 4 2 21 11 E 0,0
20.11.2019 08:00:00 -1,0 -1,1 5 3 22 12 E 0,0
20.11.2019 07:00:00 -1,3 -1,4 4 2 22 12 E -
20.11.2019 06:00:00 -1,6 -1,9 4 2 18 10 E 0,0
20.11.2019 05:00:00 -2,1 -2,5 4 2 18 10 E 0,0
20.11.2019 04:00:00 -1,9 -2,6 4 2 11 6 E 0,0
20.11.2019 03:00:00 -2,4 -2,8 0 0 5 3 N 0,0
20.11.2019 02:00:00 -2,2 -2,8 2 1 8 4 E 0,0
20.11.2019 01:00:00 -1,7 -2,5 2 1 11 6 E -
20.11.2019 00:00:00 -1,6 -2,3 2 1 9 5 E 0,0
19.11.2019 23:00:00 -1,9 -2,7 0 0 9 5 N 0,0
19.11.2019 22:00:00 -1,5 -2,5 0 0 4 2 N 0,0
19.11.2019 21:00:00 -1,5 -2,5 2 1 8 4 E 0,0
19.11.2019 20:00:00 -0,8 -1,9 4 2 9 5 E 0,0
19.11.2019 19:00:00 -0,2 -2,3 0 0 13 7 N -
19.11.2019 18:00:00 1,7 -0,9 2 1 13 7 ENE 0,0
19.11.2019 17:00:00 2,8 -0,1 2 1 15 8 ENE 0,0
19.11.2019 16:00:00 3,2 -0,8 5 3 18 10 NE 0,0
19.11.2019 15:00:00 4,2 -1,2 4 2 22 12 NE 0,0
19.11.2019 14:00:00 4,4 0,0 4 2 18 10 ENE 0,0
19.11.2019 13:00:00 5,0 1,7 5 3 18 10 NNE -
19.11.2019 12:00:00 3,7 2,4 2 1 13 7 NE 0,0
19.11.2019 11:00:00 3,7 3,3 2 1 13 7 NE 0,0
19.11.2019 10:00:00 3,3 3,2 4 2 11 6 NE 0,0
19.11.2019 09:00:00 2,8 2,7 4 2 15 8 ENE 0,0
19.11.2019 08:00:00 2,7 2,7 4 2 15 8 ENE 0,0
19.11.2019 07:00:00 2,7 2,7 5 3 18 10 NE -
19.11.2019 06:00:00 2,9 2,9 5 3 22 12 ENE 0,0
19.11.2019 05:00:00 3,2 3,2 4 2 13 7 N 0,0
19.11.2019 04:00:00 3,2 3,2 2 1 13 7 NNO 0,0
19.11.2019 03:00:00 3,0 2,9 2 1 8 4 ONO 0,0
19.11.2019 02:00:00 3,0 2,9 0 0 8 4 N 0,0
19.11.2019 01:00:00 2,9 2,8 0 0 5 3 N -
19.11.2019 00:00:00 2,8 2,7 0 0 9 5 N 0,0
18.11.2019 23:00:00 2,7 2,6 4 2 9 5 O 0,4
18.11.2019 22:00:00 2,7 2,6 2 1 13 7 NO 0,0
18.11.2019 21:00:00 2,6 2,5 2 1 18 10 NO 0,0
18.11.2019 20:00:00 2,6 2,3 2 1 9 5 ONO 0,2
18.11.2019 19:00:00 2,6 2,2 4 2 13 7 NO -
18.11.2019 18:00:00 2,7 2,0 2 1 16 9 ONO 0,0
18.11.2019 17:00:00 2,8 2,1 4 2 21 11 ONO 0,0
18.11.2019 16:00:00 2,9 2,0 4 2 16 9 ONO 0,0
18.11.2019 15:00:00 3,0 2,0 4 2 22 12 O 0,0
18.11.2019 14:00:00 2,7 1,7 2 1 13 7 O 0,0
18.11.2019 13:00:00 2,7 1,4 4 2 11 6 O -
18.11.2019 12:00:00 2,3 1,6 4 2 13 7 ONO 0,0
18.11.2019 11:00:00 1,5 1,4 2 1 11 6 ONO 0,0
18.11.2019 10:00:00 1,3 1,2 4 2 9 5 ONO 0,0
18.11.2019 09:00:00 0,8 0,7 0 0 8 4 N 0,0
18.11.2019 08:00:00 0,8 0,7 2 1 8 4 ONO 0,0
18.11.2019 07:00:00 1,1 1,0 2 1 9 5 NO -
18.11.2019 06:00:00 1,5 1,4 2 1 9 5 NO 0,0
18.11.2019 05:00:00 1,6 1,5 4 2 11 6 NO 0,0
18.11.2019 04:00:00 1,6 1,5 4 2 9 5 ONO 0,0
18.11.2019 03:00:00 1,6 1,5 2 1 18 10 ONO 0,0
18.11.2019 02:00:00 1,8 1,7 4 2 16 9 NNO 0,0
18.11.2019 01:00:00 2,1 2,0 4 2 18 10 ONO -
18.11.2019 00:00:00 2,0 1,9 2 1 15 8 ONO 0,0
17.11.2019 23:00:00 1,7 1,4 4 2 13 7 NNO 0,0
17.11.2019 22:00:00 1,9 1,6 4 2 15 8 NO 0,0
17.11.2019 21:00:00 2,0 1,7 4 2 15 8 ONO 0,0
17.11.2019 20:00:00 2,0 1,6 4 2 13 7 NO 0,0
17.11.2019 19:00:00 2,2 1,6 4 2 16 9 ONO -
17.11.2019 18:00:00 2,2 1,3 4 2 21 11 NO 0,0
17.11.2019 17:00:00 2,9 1,3 4 2 18 10 NO 0,0
17.11.2019 16:00:00 3,7 1,6 5 3 22 12 NO 0,0
17.11.2019 15:00:00 5,0 1,1 8 4 29 16 NNO 0,0
17.11.2019 14:00:00 5,3 1,6 8 4 26 14 NNO 0,0
17.11.2019 13:00:00 6,2 1,7 5 3 16 9 NNO -
17.11.2019 12:00:00 6,6 2,5 4 2 13 7 ONO 0,0
17.11.2019 11:00:00 5,4 0,9 4 2 13 7 NNE 0,0
17.11.2019 10:00:00 4,0 1,5 4 2 13 7 E 0,0
17.11.2019 09:00:00 1,4 0,8 4 2 15 8 ESE 0,0
17.11.2019 08:00:00 0,7 0,1 5 3 15 8 E 0,0
17.11.2019 07:00:00 1,2 0,3 4 2 9 5 ESE -
17.11.2019 06:00:00 2,5 0,7 2 1 5 3 N 0,0
17.11.2019 05:00:00 2,2 0,7 4 2 8 4 ESE 0,0
17.11.2019 04:00:00 1,8 0,6 4 2 9 5 ESE 0,0
17.11.2019 03:00:00 2,0 0,7 4 2 8 4 S 0,0
17.11.2019 02:00:00 1,7 0,7 2 1 11 6 ESE 0,0
17.11.2019 01:00:00 2,2 1,0 4 2 11 6 ESE -
17.11.2019 00:00:00 1,7 0,7 5 3 22 12 ESE 0,0
16.11.2019 23:00:00 1,3 0,3 8 4 22 12 SE 0,0
16.11.2019 22:00:00 1,6 0,4 5 3 24 13 ESE 0,0
16.11.2019 21:00:00 1,9 0,6 5 3 22 12 ESE 0,0
16.11.2019 20:00:00 2,0 0,5 9 5 21 11 SE 0,0
16.11.2019 19:00:00 1,7 0,5 8 4 18 10 SE -
16.11.2019 18:00:00 2,2 0,9 4 2 26 14 ESE 0,0
16.11.2019 17:00:00 3,2 1,1 8 4 26 14 ESE 0,0
16.11.2019 16:00:00 4,2 1,6 8 4 26 14 SE 0,0
16.11.2019 15:00:00 5,2 1,3 8 4 29 16 SE 0,0
16.11.2019 14:00:00 3,9 1,6 8 4 28 15 ESE 0,0
16.11.2019 13:00:00 3,9 2,3 11 6 29 16 SE -
16.11.2019 12:00:00 2,9 1,6 11 6 35 19 SSE 0,2
16.11.2019 11:00:00 2,6 0,0 8 4 31 17 S 0,0
16.11.2019 10:00:00 2,7 -0,8 15 8 34 18 SSO 0,0
16.11.2019 09:00:00 2,1 -0,2 9 5 29 16 SSE 0,0
16.11.2019 08:00:00 1,5 -0,7 9 5 35 19 SSO 0,0

tt = Temperatura
td = dewpoint
ff = velocità del vento
fx = gusts
dd = direzione del vento
rr = precipitazioni

Stazioni seguenti

WeatherPro
AMSI
MeteoEarth